Change the Weather History Date:

Thursday, January 16, 2014

  Actual Average Record
Temperature  
Mean Temperature 46 °F -  
Max Temperature 63 °F 50 °F 75 °F (2012)
Min Temperature 28 °F 26 °F 13 °F (2009)
Degree Days  
Heating Degree Days 20    
Moisture  
Dew Point 18 °F    
Average Humidity 36    
Maximum Humidity 73    
Minimum Humidity 12    
Precipitation  
Precipitation 0.00 in - - ()
Sea Level Pressure  
Sea Level Pressure 30.12 in    
Wind  
Wind Speed 10 mph (NNW)    
Max Wind Speed 24 mph    
Max Gust Speed 33 mph    
Visibility 10 miles    
Events      
Averages and records for this station are not official NWS values.
T = Trace of Precipitation, MM = Missing Value Source: NWS Daily Summary

Daily Weather History Graph

Daily Weather History Graph

Search for Another Location

Airport or City:

Trip Planner

Search our weather history database for the weather conditions in past years. The results will help you decide how hot, cold, wet, or windy it might be!

Date:

Astronomy

Jan. 16, 2014 Rise Set
Actual Time 7:43 AM CST 5:50 PM CST
Civil Twilight 7:16 AM CST 6:17 PM CST
Nautical Twilight 6:45 AM CST 6:48 PM CST
Astronomical Twilight 6:15 AM CST 7:19 PM CST
Moon 6:39 PM CST (1/16) 7:41 AM CST (1/16)
Length of Visible Light 11h 01m
Length of Day
10h 07m
Full, 100% of the Moon is Illuminated
Jan 16
Full
Jan 23
Last Quarter
Jan 30
New
Feb 6
First Quarter
Feb 14
Full

Hourly Weather History & Observations

Time (CST) Temp. Windchill Dew Point Humidity Pressure Visibility Wind Dir Wind Speed Gust Speed Precip Events Conditions
12:58 AM 29.1 °F - 21.2 °F 72% 29.99 in 10.0 mi South 2.3 mph - N/A   Clear
1:58 AM 36.5 °F 32.7 °F 22.5 °F 57% 29.97 in 10.0 mi NNW 4.6 mph - N/A   Clear
2:58 AM 28.2 °F 22.0 °F 20.7 °F 73% 29.99 in 10.0 mi West 5.8 mph - N/A   Clear
3:58 AM 35.1 °F 27.9 °F 21.7 °F 58% 29.99 in 10.0 mi NW 9.2 mph - N/A   Clear
4:58 AM 35.4 °F 30.5 °F 22.5 °F 59% 30.01 in 10.0 mi WNW 5.8 mph - N/A   Clear
5:58 AM 39.0 °F 34.0 °F 23.2 °F 53% 30.02 in 10.0 mi NNW 6.9 mph - N/A   Clear
6:58 AM 38.3 °F 30.9 °F 24.4 °F 57% 30.05 in 10.0 mi NW 11.5 mph - N/A   Clear
7:58 AM 42.1 °F 36.6 °F 23.4 °F 48% 30.09 in 10.0 mi NW 9.2 mph - N/A   Clear
8:58 AM 43.7 °F 36.9 °F 23.9 °F 46% 30.12 in 10.0 mi NNW 13.8 mph - N/A   Clear
9:58 AM 54.5 °F - 23.9 °F 31% 30.15 in 10.0 mi North 19.6 mph 26.5 mph N/A   Clear
10:58 AM 55.8 °F - 24.6 °F 30% 30.18 in 10.0 mi North 21.9 mph 28.8 mph N/A   Clear
11:58 AM 57.7 °F - 26.1 °F 30% 30.20 in 10.0 mi NNE 24.2 mph 31.1 mph N/A   Clear
12:58 PM 60.6 °F - 23.5 °F 24% 30.16 in 10.0 mi North 20.7 mph 33.4 mph N/A   Clear
1:58 PM 63.3 °F - 17.8 °F 17% 30.13 in 10.0 mi North 20.7 mph 27.6 mph N/A   Clear
2:58 PM 62.2 °F - 9.3 °F 12% 30.13 in 10.0 mi North 18.4 mph 29.9 mph N/A   Clear
3:58 PM 61.0 °F - 10.0 °F 13% 30.14 in 10.0 mi North 20.7 mph 28.8 mph N/A   Clear
4:58 PM 59.2 °F - 10.6 °F 15% 30.15 in 10.0 mi NNW 15.0 mph - N/A   Clear
5:58 PM 53.1 °F - 12.7 °F 20% 30.17 in 10.0 mi NNW 8.1 mph - N/A   Clear
6:58 PM 49.1 °F - 12.9 °F 23% 30.20 in 10.0 mi NW 5.8 mph - N/A   Clear
7:58 PM 45.0 °F 40.6 °F 14.2 °F 29% 30.20 in 10.0 mi NNW 8.1 mph - N/A   Clear
8:58 PM 50.0 °F - 12.7 °F 23% 30.22 in 10.0 mi NNW 9.2 mph - N/A   Mostly Cloudy
9:58 PM 49.5 °F - 13.3 °F 24% 30.23 in 10.0 mi NW 9.2 mph - N/A   Overcast
10:58 PM 48.9 °F - 15.1 °F 26% 30.26 in 10.0 mi WNW 8.1 mph - N/A   Scattered Clouds
11:58 PM 50.0 °F - 12.4 °F 22% 30.25 in 10.0 mi NNW 15.0 mph - N/A   Clear